User: anonymous   Login
Location: Unspecified
(0.0000°N, 0.0000°E)
Time: 17:04:00
(UTC+00:00)
Language:

Kosmos-2279 - Orbit

View from above orbital plane
View from above orbital plane
View from above satellite
View from above satellite

Ground track
Ground track

The orbit data is extracted from the following two-line orbital elements,

1 23092U 94024A   18174.67023555 +.00000029 +00000-0 +13708-4 0  9993
2 23092 082.9487 217.9063 0036472 124.7303 235.7297 13.76366430212971
Epoch (UTC): 23 June 2018 16:05:08
Eccentricity: 0.0036472
inclination: 82.9487°
perigee height: 950 km
apogee height: 1003 km
right ascension of ascending node: 217.9063°
argument of perigee: 124.7303°
revolutions per day: 13.76366430
mean anomaly at epoch: 235.7297°
orbit number at epoch: 21297

The dashed part of the orbit path shows where the satellite is in the earth's shadow,  

DLR